Regional Weather Roundup
Issued by NWS Upton, NY

Current Version | Previous Version | Text Only | Print | Product List | Glossary On
Versions: 1 2 3 4 5 6 7 8 9 10 11 12 13 14 15 16 17 18 19 20 21 22 23 24 25 26 27 28
000
ASUS41 KOKX 151605
RWROKX

REGIONAL WEATHER ROUNDUP
NATIONAL WEATHER SERVICE NEW YORK NY
1200 PM EDT TUE APR 15 2014

NOTE: "FAIR" INDICATES FEW OR NO CLOUDS BELOW 12,000 FEET WITH NO
SIGNIFICANT WEATHER AND/OR OBSTRUCTIONS TO VISIBILITY.

NYZ071-072-176-178-NJZ106-104-151700-
NEW YORK CITY METRO AREA


CITY           SKY/WX    TMP DP  RH WIND       PRES   REMARKS
CENTRAL PARK   RAIN      59  56  89 VRB7G21   29.67F FOG
LAGUARDIA APRT LGT RAIN  59  54  83 S25G35    29.64F
KENNEDY INTL   LGT RAIN  53  51  93 S20       29.69F VSB 1/4
NEWARK/LIBERTY LGT RAIN  64  62  93 S18G29    29.63F FOG
TETERBORO      LGT RAIN  64  59  82 S20G30    29.61F
$$

NYZ177-179-078>081-151700-
LONG ISLAND NEW YORK

CITY           SKY/WX    TMP DP  RH WIND       PRES   REMARKS
FARMINGDALE    HVY RAIN  56  56 100 S30G41    29.68F FOG
ISLIP          RAIN      58  55  90 S26G37    29.68F FOG
SHIRLEY        HVY RAIN  56  54  93 S28G38    29.72S FOG
WESTHAMPTON    RAIN      55  52  88 S15G28    29.73F FOG
MONTAUK POINT    N/A     56  50  80 S14G28    29.77F
$$

NYZ052-065-067-151700-
HUDSON VALLEY

CITY           SKY/WX    TMP DP  RH WIND       PRES   REMARKS
WHITE PLAINS   DRIZZLE   57  55  93 S20G38    29.65F FOG
NEWBURGH       LGT RAIN  63  61  94 S18G30    29.59F FOG
MONTGOMERY     RAIN      64  61  90 S16G25    29.54F FOG
POUGHKEEPSIE   LGT RAIN  64  59  83 S13G30    29.57F
ALBANY         LGT RAIN  66  58  75 S17G32    29.49F
$$

NJZ001-105-106-008-010-013-015-019>022-104-151700-
NEW JERSEY

CITY           SKY/WX    TMP DP  RH WIND       PRES   REMARKS
NEWARK/LIBERTY LGT RAIN  64  62  93 S18G29    29.63F FOG
TETERBORO      LGT RAIN  64  59  82 S20G30    29.61F
CALDWELL       LGT RAIN  65  62  90 S15G22    29.61F FOG
MORRISTOWN     LGT RAIN  64  63  94 S15G30    29.61F
SOMERVILLE     LGT RAIN  65  63  93 S12G22    29.59S FOG
LINDEN         LGT RAIN  65  63  90 S13G23    29.65F
SUSSEX         CLOUDY    67  61  81 S13G26    29.55F HAZE
ANDOVER          N/A     64  62  93 S12G23    29.57F
TRENTON        LGT RAIN  65  62  90 S16G30    29.60F FOG
MILLVILLE      LGT RAIN  62  61  96 S12G20    29.64F
ATLANTIC CITY  CLOUDY    58  57  97 S20G37    29.67F FOG
WRIGHTSTOWN    LGT RAIN  63  63  99 S18G29    29.61F
TOMS RIVER     CLOUDY    63  61  94 S21G28    29.67F
BELMAR         CLOUDY    63  57  82 S24G36    29.66F
$$

PAZ047>061-062-071-151700-
EASTERN PENNSYLVANIA

CITY           SKY/WX    TMP DP  RH WIND       PRES   REMARKS
PHILADELPHIA   LGT RAIN  66  61  84 S14       29.58F
ALLENTOWN      LGT RAIN  65  61  87 S12       29.58R
SCRANTON       LGT RAIN  65  59  81 SW15G24   29.51S
$$

CTZ002-004>006-009-010-012-RIZ004-006-007-MAZ004-011-015-151700-
SOUTHERN NEW ENGLAND
 IN CT

CITY           SKY/WX    TMP DP  RH WIND       PRES   REMARKS
BRADLEY INTL   LGT RAIN  62  60  93 S21G31    29.63F FOG
HARTFORD       HVY RAIN  61  59  93 S23G36    29.66F VSB 1/2
DANBURY        HVY RAIN  61  59  93 S18G32    29.65F VSB 1
WTRBRY/OXFORD  RAIN      61  57  88 S17G35    29.69F FOG
BRIDGEPORT     LGT RAIN  59  57  93 S25G37    29.66F FOG
MERIDEN        HVY RAIN  60  58  92 S20G31    29.67F FOG
NEW HAVEN      RAIN      57  55  94 S21G32    29.69F FOG
CHESTER        LGT RAIN  57  57 100 S18G30    29.71F
GROTON         LGT RAIN  52  50  93 S21       29.74F FOG
WILLIMANTIC    LGT RAIN  62  58  86 S21G31    29.71F FOG

 IN RI

CITY           SKY/WX    TMP DP  RH WIND       PRES   REMARKS
PROVIDENCE     CLOUDY    66  54  65 S29G41    29.77F
BLOCK ISLAND   CLOUDY    55  48  76 S20G26    29.78F
WESTERLY       CLOUDY    53  49  86 S18G26    29.77F

 IN MA

CITY           SKY/WX    TMP DP  RH WIND       PRES   REMARKS
BOSTON         CLOUDY    65  54  67 S29G49    29.74F
WORCESTER      LGT RAIN  59  57  93 SW24G40   29.70F
WESTFIELD      RAIN      62  60  93 S20G33    29.62F FOG
PROVINCETOWN   PTSUNNY   57  52  82 MISG      29.82F
NANTUCKET      PTSUNNY   56  49  77 S20G29    29.86F
$$

ANZ330-335-338-340-345-350-353-355-151700-
COASTAL MARINE OBSERVATIONS


STATION/POSITION TIME  SKY/WX   TEMP    WIND        PRES    VSBY  WAVE
                                AIR SEA DIR/SP/G                  HT/PER
                 (UTC)          (F)     (DEG/KT/KT) (MB)    (MI)  (FT/S)
NY HARB ENTRANCE 1600            52 43  170/ 25/ 31 1004.0
4S FIRE IS       1500               46                N/A           7/ 8
23SW MTP         1600            51 43  170/ 21/ 27 1006.9          7/ 8
HUDSON CANYON    1500            54 46  170/ 21/ 25 1008.5          9/ 8
EXECUTION ROCKS  1600            55 43  190/ 25/ 39   N/A
WESTERN LI SOUND 1600            58     180/ 25/ 37   N/A           3/ 3
CENTRAL LI SOUND 1500            53 42  190/ 21/ 27   N/A           4/ 4
EASTERN LI SOUND NOT AVBL
ROBBINS REEF     1600            58     170/ 20/ 24   N/A
$$


>>>>>>>>>>>>>>>>>>>>>>>>>>>> KEY <<<<<<<<<<<<<<<<<<<<<<<<<<<
>                                                          <
>     SKY/WX - SKY CONDITION/PRESENT WEATHER               <
>     TMP    - TEMPERATURE IN FAHRENHEIT                   <
>     DP     - DEWPOINT IN FAHRENHEIT                      <
>     RH     - RELATIVE HUMIDITY IN PERCENT                <
>     WIND   - DIRECTION AND SPEED IN MPH                  <
>     PRES   - MEAN SEA LEVEL PRESSURE IN INCHES OF HG     <
>     WCI    - WIND CHILL INDEX                            <
>     VSB    - VISIBILITY IN MILES                         <
>     HX     - HEAT INDEX                                  <
>     TC     - TEMPERATURE IN CELSIUS                      <
>     VRB    - VARIABLE WIND DIRECTION                     <
>                                                          <
>>>>>>>>>>>>>>>>>>>>>>>>>>>> KEY <<<<<<<<<<<<<<<<<<<<<<<<<<<





USA.gov is the U.S. government's official web portal to all federal, state and local government web resources and services.